Showing default

ASNARO, 40298

Orbit data source: Space-Track

ASNARO, 40298 is a payload satellite owned by J-spacesystems (JP) in SSO that was launched on Thu, 06 Nov 2014 UTC via a DNEPR launch vehicle from the Orenburg, Russia (OREN). Payload-class satellites include a variety of spacecraft equipped with specific instruments for various scientific and technological missions. These include communications satellites like Starlink; space stations such as the ISS; scientific satellites like the Hubble; Earth observation satellites from companies like Planet Labs, Umbra, and HawkEye 360; GPS; miniature CubeSats for education and research; and military/defense satellites.

Loading next visibility...
Identifier
40298, 2014-070A
Orbit
SSO
Last TLE update
7 hours ago
Origin
Manufacturer
NEC Toshiba/Fuchu
Mission
Operational Civil Imaging
Bus & Motor
NEXTAR-300L, AOCS?
Mass
495 kg wet, 450 kg dry
Launch date (UTC)
2014-11-06 (11 years ago)
Launch vehicle
DNEPR
Launch site
Orenburg, Russia (OREN)
Object type
Payload
Rocket body
Debris
Shape & HBR
Cyl + 2 Pan, 3.5 m
Radar Cross Section
9.327 m², Large (>1 m²)

Expand to show TLE details & history

TLE from 7 hours ago
0 ASNARO
1 40298U 14070A   25183.56318212  .00007464  00000-0  35425-3 0  9995
2 40298  97.3785 263.3344 0001959 283.6755  76.4262 15.19538746590919
Epoch: 2025-07-02T13:30Z
TLE epoch observation values (Epoch: 2025-07-02T13:30:58.935Z)
Latitude
0.00002°
Longitude
139.74635°
Altitude
510.008 km
Speed
7.609 km/s
True Right ascension
17h 33m 20s
True Declination
0° 00' 00"
Sunlit
Object was in full shadow at epoch
Visualization orbit readout
Latitude
-49.4938°
Longitude
-48.6258°
Altitude
525.655 km
Speed
7.599 km/s
Apparent Right ascension
00h 27m 51s
Apparent Declination
-65° 22' 29"
Sunlit
Object is in daylight
Visualization observer readout
Local Sidereal Time
08:34:53
Azimuth
212.482° SW
Elevation
-48.723°
Doppler factor
1
Orbital elements
Apogee altitude
505.547 km
Perigee altitude
502.851 km
Semi-major axis
6,882.336 km
Eccentricity
0.0002
Inclination
97.3785°
RAAN
263.3344°
Arg. of periapsis
283.6755°
True anomaly
Unknown
Mean anomaly
76.4262°
Eccentric anomaly
Unknown
Mean motion
3.80136 °/min
Orbital period
94.7 mins
BSTAR
0.00035425
Loading maneuver chart data...
Loading SW <> Apogee altitude chart data...
Loading historical data...
Loading historical data...
Loading historical data...
Loading historical data...
Loading historical data...
Loading historical data...
Loading historical data...

ASNARO Visibility forecast

Observer location: undefined°, undefined°

Span
Click to sort rows by Start time (UTC) header in descending order
Start Az.
Max El. time (UTC)
Max El. Az.
Max El.
End time (UTC)
End Az.
6 mins2025-07-03 05:26:47.585Z171.666° S2025-07-03 05:29:47.585Z260.612° W44.504°2025-07-03 05:32:47.585Z344.838° N
5 mins2025-07-03 18:32:47.585Z344.749° N2025-07-03 18:34:47.585Z261.814° W35.798°2025-07-03 18:37:47.585Z211.148° SW
|